Location: Berlin
(52.5171°N, 13.3759°E)
Time: 22:13:45
(UTC+01:00)

ISS - Pass Details

Date: 06 January 2018
Orbit: 401 x 407 km, 51.6° (Epoch: 17 January)

Event Time Altitude Azimuth Distance (km) Brightness Sun altitude
Exits shadow 05:15:13 26° 93° (E) 849 -1.6 -26.2°
Drops below altitude 10° 05:16:48 10° 86° (E) 1,469 0.0 -26.0°
Sets 05:18:54 0° 84° (E) 2,331 1.3 -25.7°
